• In Hungary
  • List of Countries
  • For 7 days
  • Water Temperature
  • Satellite Maps
  • Weather Map
  • News
  • Weather Widgets
  • user-avatar
    Login

    Hourly Weather Burenino

    Today, 20 July, Friday

    Time Temperature Precipitation Wind Pressure Humidity
    00:00 +25°C° 0 mm 2 mps 747 mmHg 58%
    01:00 +24°C° 0 mm 2 mps 747 mmHg 61%
    02:00 +24°C° 0 mm 2 mps 747 mmHg 64%
    03:00 +24°C° 0 mm 2 mps 747 mmHg 67%
    04:00 +23°C° 0 mm 2 mps 747 mmHg 70%
    05:00 +24°C° 0 mm 2 mps 747 mmHg 69%
    06:00 +25°C° 0 mm 2 mps 747 mmHg 67%
    07:00 +26°C° 0 mm 3 mps 747 mmHg 66%
    08:00 +28°C° 0 mm 3 mps 747 mmHg 61%
    09:00 +29°C° 0 mm 3 mps 747 mmHg 55%
    10:00 +31°C° 0 mm 3 mps 747 mmHg 50%
    11:00 +33°C° 0 mm 3 mps 747 mmHg 45%
    12:00 +34°C° 0 mm 3 mps 747 mmHg 41%
    13:00 +35°C° 0 mm 3 mps 746 mmHg 36%
    14:00 +35°C° 0 mm 3 mps 746 mmHg 36%
    15:00 +36°C° 0 mm 3 mps 746 mmHg 35%
    16:00 +36°C° 0 mm 2 mps 746 mmHg 35%
    17:00 +35°C° 0 mm 3 mps 746 mmHg 40%
    18:00 +33°C° 0 mm 3 mps 746 mmHg 46%
    19:00 +32°C° 0 mm 4 mps 746 mmHg 51%
    20:00 +30°C° 0 mm 4 mps 746 mmHg 54%
    21:00 +28°C° 0 mm 4 mps 746 mmHg 57%
    22:00 +27°C° 0 mm 4 mps 746 mmHg 59%
    23:00 +26°C° 0.6 mm 4 mps 746 mmHg 64%

    Tomorrow, 21 July, Saturday

    Time Temperature Precipitation Wind Pressure Humidity
    00:00 +25°C° 0.6 mm 4 mps 746 mmHg 69%
    01:00 +24°C° 0.6 mm 3 mps 746 mmHg 74%
    02:00 +24°C° 0.3 mm 3 mps 746 mmHg 76%
    03:00 +24°C° 0.3 mm 3 mps 746 mmHg 77%
    04:00 +24°C° 0.3 mm 3 mps 746 mmHg 79%
    05:00 +23°C° 0 mm 4 mps 746 mmHg 78%
    06:00 +23°C° 0 mm 5 mps 746 mmHg 76%
    07:00 +23°C° 0 mm 5 mps 746 mmHg 75%
    08:00 +26°C° 0 mm 5 mps 746 mmHg 70%
    09:00 +27°C° 0 mm 6 mps 746 mmHg 66%
    10:00 +28°C° 0 mm 6 mps 747 mmHg 61%
    11:00 +29°C° 0 mm 6 mps 747 mmHg 57%
    12:00 +30°C° 0 mm 6 mps 747 mmHg 53%
    13:00 +32°C° 0 mm 6 mps 746 mmHg 49%
    14:00 +32°C° 0 mm 6 mps 746 mmHg 49%
    15:00 +32°C° 0 mm 6 mps 746 mmHg 50%
    16:00 +32°C° 0 mm 6 mps 746 mmHg 51%
    17:00 +30°C° 0 mm 6 mps 747 mmHg 55%
    18:00 +29°C° 0 mm 6 mps 747 mmHg 59%
    19:00 +27°C° 0 mm 6 mps 747 mmHg 63%
    20:00 +26°C° 0.1 mm 6 mps 747 mmHg 65%
    21:00 +24°C° 0.1 mm 7 mps 747 mmHg 68%
    22:00 +22°C° 0.1 mm 7 mps 747 mmHg 70%
    23:00 +22°C° 0.1 mm 7 mps 747 mmHg 72%

    Day after tomorrow, 22 July, Sunday

    Time Temperature Precipitation Wind Pressure Humidity
    00:00 +21°C° 0.1 mm 7 mps 747 mmHg 73%
    01:00 +20°C° 0.1 mm 7 mps 747 mmHg 74%
    02:00 +20°C° 0.1 mm 6 mps 747 mmHg 76%
    03:00 +20°C° 0.1 mm 6 mps 748 mmHg 78%
    04:00 +19°C° 0.1 mm 5 mps 748 mmHg 79%
    05:00 +20°C° 0 mm 6 mps 748 mmHg 77%
    06:00 +20°C° 0 mm 7 mps 748 mmHg 75%
    07:00 +21°C° 0 mm 7 mps 748 mmHg 73%
    08:00 +22°C° 0 mm 7 mps 748 mmHg 70%
    09:00 +23°C° 0 mm 7 mps 748 mmHg 66%
    10:00 +24°C° 0 mm 7 mps 748 mmHg 63%
    11:00 +26°C° 0 mm 7 mps 748 mmHg 60%
    12:00 +27°C° 0 mm 7 mps 749 mmHg 57%
    13:00 +28°C° 0 mm 7 mps 749 mmHg 54%
    14:00 +28°C° 0 mm 7 mps 749 mmHg 53%
    15:00 +28°C° 0 mm 7 mps 749 mmHg 51%
    16:00 +28°C° 0 mm 7 mps 749 mmHg 49%
    17:00 +28°C° 0 mm 7 mps 749 mmHg 50%
    18:00 +27°C° 0 mm 7 mps 749 mmHg 51%
    19:00 +26°C° 0 mm 6 mps 749 mmHg 52%
    20:00 +23°C° 0 mm 7 mps 749 mmHg 50%
    21:00 +22°C° 0 mm 7 mps 749 mmHg 49%
    22:00 +21°C° 0 mm 7 mps 750 mmHg 47%
    23:00 +21°C° 0 mm 7 mps 750 mmHg 48%

    23 July, Monday

    Time Temperature Precipitation Wind Pressure Humidity
    00:00 +20°C° 0 mm 7 mps 750 mmHg 48%
    01:00 +20°C° 0 mm 7 mps 750 mmHg 49%
    02:00 +18°C° 0 mm 7 mps 750 mmHg 50%
    03:00 +19°C° 0 mm 6 mps 750 mmHg 50%
    04:00 +17°C° 0 mm 6 mps 751 mmHg 51%
    05:00 +17°C° 0 mm 7 mps 751 mmHg 52%
    06:00 +17°C° 0 mm 7 mps 751 mmHg 54%
    07:00 +17°C° 0 mm 8 mps 751 mmHg 55%
    08:00 +20°C° 0 mm 8 mps 752 mmHg 52%
    09:00 +21°C° 0 mm 8 mps 752 mmHg 49%
    10:00 +23°C° 0 mm 8 mps 752 mmHg 47%
    11:00 +24°C° 0 mm 8 mps 752 mmHg 44%
    12:00 +26°C° 0 mm 8 mps 752 mmHg 41%
    13:00 +27°C° 0 mm 7 mps 752 mmHg 38%
    14:00 +27°C° 0 mm 7 mps 752 mmHg 37%
    15:00 +27°C° 0 mm 7 mps 752 mmHg 37%
    16:00 +28°C° 0 mm 7 mps 752 mmHg 37%
    17:00 +27°C° 0 mm 6 mps 752 mmHg 40%
    18:00 +26°C° 0 mm 6 mps 752 mmHg 43%
    19:00 +25°C° 0 mm 5 mps 752 mmHg 47%
    20:00 +23°C° 0 mm 5 mps 753 mmHg 49%
    21:00 +21°C° 0 mm 5 mps 753 mmHg 52%
    22:00 +20°C° 0 mm 5 mps 753 mmHg 55%
    23:00 +19°C° 0 mm 6 mps 753 mmHg 55%

    24 July, Tuesday

    Time Temperature Precipitation Wind Pressure Humidity
    00:00 +19°C° 0 mm 6 mps 753 mmHg 56%
    01:00 +17°C° 0 mm 6 mps 753 mmHg 57%
    02:00 +17°C° 0 mm 6 mps 753 mmHg 57%
    03:00 +16°C° 0 mm 5 mps 754 mmHg 57%
    04:00 +16°C° 0 mm 5 mps 754 mmHg 57%
    05:00 +16°C° 0 mm 5 mps 754 mmHg 56%
    06:00 +17°C° 0 mm 6 mps 754 mmHg 55%
    07:00 +17°C° 0 mm 6 mps 755 mmHg 55%
    08:00 +20°C° 0 mm 6 mps 755 mmHg 50%
    09:00 +22°C° 0 mm 6 mps 755 mmHg 45%
    10:00 +24°C° 0 mm 6 mps 755 mmHg 40%
    11:00 +26°C° 0 mm 6 mps 755 mmHg 38%
    12:00 +27°C° 0 mm 5 mps 755 mmHg 35%
    13:00 +28°C° 0 mm 5 mps 755 mmHg 32%
    14:00 +29°C° 0 mm 5 mps 755 mmHg 32%
    15:00 +29°C° 0 mm 5 mps 754 mmHg 31%
    16:00 +29°C° 0 mm 5 mps 754 mmHg 31%
    17:00 +28°C° 0 mm 4 mps 754 mmHg 35%
    18:00 +27°C° 0 mm 4 mps 754 mmHg 39%
    19:00 +27°C° 0 mm 3 mps 754 mmHg 44%
    20:00 +25°C° 0 mm 4 mps 754 mmHg 48%
    21:00 +22°C° 0 mm 4 mps 755 mmHg 52%
    22:00 +21°C° 0 mm 4 mps 755 mmHg 56%
    23:00 +20°C° 0 mm 4 mps 755 mmHg 59%

    25 July, Wednesday

    Time Temperature Precipitation Wind Pressure Humidity
    00:00 +19°C° 0 mm 4 mps 755 mmHg 61%
    01:00 +19°C° 0 mm 4 mps 755 mmHg 64%
    02:00 +19°C° 0 mm 4 mps 755 mmHg 68%
    03:00 +18°C° 0 mm 4 mps 755 mmHg 72%
    04:00 +18°C° 0 mm 4 mps 755 mmHg 76%
    05:00 +19°C° 0 mm 4 mps 755 mmHg 72%
    06:00 +20°C° 0 mm 4 mps 755 mmHg 69%
    07:00 +21°C° 0 mm 4 mps 756 mmHg 66%
    08:00 +25°C° 0 mm 4 mps 756 mmHg 59%
    09:00 +27°C° 0 mm 4 mps 756 mmHg 51%
    10:00 +29°C° 0 mm 4 mps 756 mmHg 44%
    11:00 +30°C° 0 mm 4 mps 756 mmHg 40%
    12:00 +32°C° 0 mm 4 mps 755 mmHg 37%
    13:00 +33°C° 0 mm 4 mps 755 mmHg 33%
    14:00 +33°C° 0 mm 4 mps 755 mmHg 32%
    15:00 +33°C° 0 mm 4 mps 755 mmHg 32%
    16:00 +33°C° 0 mm 3 mps 755 mmHg 32%
    17:00 +33°C° 0 mm 3 mps 755 mmHg 36%
    18:00 +31°C° 0 mm 3 mps 755 mmHg 40%
    19:00 +30°C° 0 mm 3 mps 755 mmHg 45%
    20:00 +28°C° 0 mm 3 mps 755 mmHg 49%
    21:00 +26°C° 0 mm 3 mps 755 mmHg 53%
    22:00 +25°C° 0 mm 3 mps 755 mmHg 58%
    23:00 +24°C° 0 mm 3 mps 755 mmHg 61%
    Show more